Precipitable_Water
0.24 0.21 0.17 0.18 0.20 0.20 0.25 0.24 0.22 0.25 0.30 0.26 0.28 0.28 0.31 0.40 0.43 0.57 0.77 0.89 0.99 1.06 1.30 1.44 1.34 1.37 1.28 1.33 1.56 1.88 1.57 1.70 1.67 1.68 1.60 1.53 1.49 1.47 1.48 1.53 1.52 1.47 1.40 1.27
0.22 0.18 0.19 0.22 0.25 0.25 0.25 0.23 0.23 0.27 0.34 0.31 0.32 0.30 0.36 0.38 0.41 0.52 0.75 0.81 0.92 1.02 1.09 1.14 1.21 1.18 1.14 0.98 1.31 1.79 2.00 1.92 1.78 1.81 1.73 1.63 1.54 1.56 1.53 1.49 1.44 1.37 1.24 1.15
0.18 0.20 0.27 0.26 0.24 0.24 0.26 0.26 0.25 0.26 0.30 0.28 0.33 0.29 0.29 0.32 0.37 0.65 0.75 0.80 0.80 0.81 0.88 0.93 0.95 0.92 1.01 1.17 1.50 1.78 1.78 1.75 1.75 1.72 1.67 1.58 1.57 1.51 1.40 1.27 1.21 1.18 1.13 1.02
0.22 0.25 0.29 0.30 0.28 0.28 0.24 0.28 0.26 0.25 0.23 0.20 0.27 0.22 0.28 0.31 0.30 0.57 0.70 0.79 0.81 0.81 0.87 0.94 1.04 1.07 1.12 1.20 1.52 1.62 1.65 1.63 1.59 1.58 1.43 1.33 1.22 1.13 1.12 1.07 1.07 1.00 0.98 0.95
0.20 0.22 0.27 0.28 0.30 0.30 0.25 0.30 0.26 0.25 0.24 0.22 0.20 0.20 0.23 0.32 0.34 0.55 0.67 0.84 0.95 0.96 0.95 0.97 1.05 1.09 1.16 1.27 1.28 1.32 1.24 1.22 1.22 1.16 1.14 1.09 0.99 0.96 0.96 0.94 0.92 0.93 0.88 0.89
0.28 0.32 0.30 0.29 0.33 0.33 0.32 0.28 0.26 0.26 0.27 0.20 0.17 0.18 0.19 0.24 0.38 0.56 0.65 0.80 0.90 0.95 0.97 0.95 0.99 0.97 0.98 1.03 1.02 1.00 0.98 0.96 0.98 0.99 1.02 0.98 0.92 0.88 0.85 0.82 0.76 0.74 0.77 0.84
0.25 0.26 0.30 0.32 0.29 0.33 0.32 0.24 0.19 0.18 0.19 0.15 0.22 0.21 0.18 0.26 0.47 0.54 0.58 0.71 0.82 0.87 0.84 0.78 0.77 0.81 0.87 0.86 0.88 0.90 0.87 0.85 0.91 0.93 0.91 0.86 0.82 0.75 0.73 0.70 0.65 0.65 0.73 0.80
0.17 0.17 0.24 0.28 0.28 0.27 0.28 0.25 0.19 0.14 0.15 0.23 0.36 0.30 0.31 0.51 0.64 0.73 0.78 0.79 0.78 0.75 0.72 0.73 0.78 0.83 0.82 0.83 0.89 0.90 0.86 0.84 0.88 0.81 0.75 0.74 0.71 0.67 0.66 0.68 0.69 0.73 0.72 0.69
0.19 0.18 0.27 0.30 0.31 0.30 0.25 0.23 0.25 0.25 0.27 0.28 0.33 0.49 0.71 0.71 0.69 0.72 0.76 0.80 0.70 0.69 0.73 0.73 0.79 0.80 0.79 0.82 0.85 0.86 0.84 0.79 0.77 0.77 0.77 0.71 0.69 0.68 0.67 0.72 0.73 0.67 0.59 0.53
0.21 0.20 0.28 0.34 0.36 0.36 0.30 0.29 0.24 0.29 0.19 0.22 0.29 0.40 0.45 0.61 0.65 0.70 0.72 0.69 0.72 0.79 0.79 0.81 0.81 0.77 0.79 0.84 0.86 0.86 0.84 0.78 0.75 0.74 0.71 0.70 0.67 0.67 0.69 0.67 0.62 0.55 0.51 0.49
0.29 0.25 0.21 0.32 0.34 0.31 0.31 0.27 0.30 0.35 0.35 0.24 0.23 0.33 0.59 0.61 0.73 0.72 0.74 0.77 0.79 0.83 0.82 0.85 0.77 0.79 0.81 0.84 0.83 0.83 0.81 0.76 0.73 0.73 0.71 0.68 0.66 0.64 0.66 0.64 0.63 0.58 0.52 0.48
0.36 0.29 0.22 0.28 0.37 0.42 0.34 0.30 0.30 0.26 0.28 0.37 0.35 0.37 0.62 0.62 0.69 0.70 0.71 0.80 0.88 0.89 0.84 0.83 0.79 0.80 0.80 0.80 0.81 0.80 0.81 0.79 0.75 0.71 0.71 0.69 0.63 0.67 0.68 0.68 0.59 0.55 0.50 0.48
0.40 0.31 0.23 0.24 0.34 0.40 0.36 0.32 0.32 0.32 0.34 0.30 0.32 0.38 0.60 0.67 0.65 0.79 0.81 0.92 1.03 1.10 1.05 0.88 0.83 0.80 0.80 0.80 0.79 0.80 0.81 0.78 0.74 0.72 0.71 0.65 0.70 0.70 0.62 0.58 0.57 0.54 0.50 0.52
0.45 0.38 0.29 0.23 0.25 0.38 0.37 0.31 0.32 0.31 0.29 0.28 0.28 0.36 0.48 0.62 0.70 0.80 0.87 0.99 1.05 1.06 1.19 1.03 0.93 0.88 0.83 0.82 0.82 0.78 0.77 0.79 0.75 0.70 0.68 0.68 0.68 0.61 0.60 0.60 0.57 0.54 0.53 0.54
0.47 0.35 0.37 0.37 0.33 0.37 0.43 0.42 0.37 0.31 0.32 0.30 0.32 0.36 0.48 0.59 0.71 0.83 0.90 0.96 0.94 0.94 1.07 1.05 0.96 0.93 0.88 0.81 0.77 0.76 0.78 0.77 0.72 0.70 0.66 0.63 0.63 0.63 0.58 0.58 0.56 0.58 0.56 0.55
0.52 0.35 0.38 0.36 0.39 0.35 0.37 0.44 0.42 0.37 0.36 0.40 0.45 0.44 0.62 0.71 0.75 0.80 0.80 0.83 0.92 0.96 0.98 0.99 1.00 0.94 0.82 0.79 0.75 0.74 0.74 0.72 0.73 0.64 0.62 0.63 0.64 0.60 0.56 0.58 0.58 0.56 0.52 0.50
0.50 0.43 0.36 0.30 0.40 0.38 0.33 0.38 0.46 0.50 0.53 0.52 0.40 0.49 0.63 0.64 0.67 0.73 0.79 0.88 0.94 0.96 1.04 1.06 1.01 0.88 0.77 0.76 0.73 0.70 0.72 0.75 0.67 0.62 0.61 0.62 0.59 0.56 0.57 0.56 0.50 0.51 0.49 0.48
0.53 0.50 0.49 0.31 0.37 0.31 0.36 0.48 0.50 0.50 0.51 0.57 0.64 0.70 0.75 0.76 0.77 0.80 0.83 0.87 0.98 0.98 1.03 1.01 0.93 0.80 0.78 0.75 0.74 0.76 0.76 0.67 0.59 0.59 0.63 0.60 0.60 0.55 0.52 0.48 0.47 0.47 0.44 0.47
0.53 0.60 0.50 0.41 0.34 0.34 0.35 0.40 0.46 0.47 0.47 0.61 0.64 0.64 0.73 0.82 0.86 0.87 0.96 1.02 1.01 1.01 1.00 0.94 0.87 0.81 0.75 0.74 0.77 0.75 0.62 0.61 0.62 0.64 0.62 0.58 0.50 0.48 0.48 0.46 0.47 0.46 0.46 0.48
0.46 0.69 0.57 0.52 0.39 0.29 0.40 0.51 0.62 0.59 0.46 0.69 0.63 0.68 0.69 0.74 0.62 0.79 0.98 0.97 0.93 0.91 0.89 0.85 0.80 0.73 0.73 0.75 0.73 0.61 0.63 0.61 0.62 0.63 0.50 0.45 0.47 0.47 0.41 0.43 0.41 0.44 0.46 0.46
0.42 0.51 0.53 0.53 0.44 0.43 0.58 0.58 0.68 0.46 0.52 0.74 0.75 0.75 0.76 0.68 0.76 0.93 1.01 0.98 0.97 0.86 0.76 0.76 0.72 0.70 0.72 0.72 0.65 0.61 0.58 0.62 0.60 0.44 0.45 0.48 0.50 0.45 0.42 0.43 0.44 0.45 0.47 0.51
0.45 0.47 0.51 0.58 0.51 0.42 0.73 0.66 0.54 0.67 0.80 0.78 0.78 0.82 0.97 0.94 0.96 0.98 0.93 0.80 0.75 0.68 0.66 0.68 0.67 0.68 0.69 0.64 0.60 0.62 0.58 0.51 0.47 0.47 0.50 0.51 0.50 0.49 0.46 0.44 0.42 0.46 0.49 0.46
0.51 0.59 0.55 0.62 0.58 0.79 0.89 0.78 0.82 0.85 0.82 0.85 0.87 0.95 1.09 0.98 0.93 0.92 0.83 0.75 0.65 0.61 0.61 0.65 0.65 0.64 0.62 0.63 0.64 0.55 0.50 0.48 0.47 0.54 0.52 0.49 0.47 0.46 0.39 0.40 0.43 0.43 0.47 0.48
0.59 0.72 0.67 0.63 0.68 0.69 0.89 1.00 0.87 0.87 0.86 0.90 0.92 0.96 0.95 0.91 0.90 0.83 0.70 0.61 0.59 0.60 0.59 0.65 0.64 0.62 0.56 0.52 0.53 0.53 0.52 0.52 0.51 0.50 0.48 0.51 0.48 0.43 0.41 0.42 0.44 0.45 0.50 0.53
0.70 0.76 0.70 0.67 0.74 0.80 0.87 0.87 0.88 0.90 0.93 0.93 0.95 0.96 0.93 0.84 0.75 0.64 0.61 0.58 0.59 0.59 0.63 0.63 0.58 0.54 0.48 0.51 0.54 0.55 0.53 0.52 0.51 0.49 0.51 0.49 0.43 0.43 0.45 0.46 0.44 0.49 0.53 0.54
0.80 0.70 0.63 0.70 0.79 0.81 0.82 0.92 0.92 0.86 0.86 0.94 0.90 0.87 0.82 0.58 0.56 0.64 0.59 0.59 0.60 0.60 0.60 0.57 0.55 0.53 0.54 0.58 0.55 0.54 0.56 0.53 0.52 0.49 0.50 0.48 0.45 0.41 0.41 0.44 0.47 0.54 0.57 0.55
Wind_Speed
15 12 13 15 15 16 14 14 17 13 6 10 12 10 12 10 8 8 6 5 6 7 9 11 16 15 14 16 16 18 12 17 11 15 16 18 21 23 27 29 31 32 33 33
15 16 15 16 16 16 16 13 14 11 7 8 13 12 11 12 11 11 9 8 7 8 10 11 11 14 16 17 17 17 15 13 17 18 21 22 24 26 28 29 30 29 29 30
18 14 17 17 17 16 15 11 12 11 11 9 10 11 12 16 12 7 9 9 8 8 7 8 12 14 15 13 14 14 15 16 18 21 22 24 26 27 27 26 27 27 28 31
18 20 20 20 17 16 13 12 14 15 13 12 8 13 14 13 13 11 9 9 8 9 9 9 10 11 13 14 12 13 16 18 19 20 22 22 23 22 23 24 25 28 30 32
19 19 18 19 16 17 15 14 13 14 15 17 19 12 14 14 15 13 10 10 8 8 8 9 9 8 7 9 10 11 12 14 17 19 19 19 19 19 21 23 26 28 31 32
20 18 21 20 17 17 15 14 15 14 12 13 18 17 19 17 13 14 13 10 8 9 8 9 8 7 6 8 9 11 13 15 16 17 17 17 18 20 22 25 27 29 30 31
22 23 22 21 19 17 15 13 12 11 13 14 14 16 21 19 16 16 14 11 9 9 9 9 8 7 8 9 11 13 14 15 16 16 16 17 19 21 23 26 28 30 31 32
22 22 23 20 19 17 16 15 14 13 12 12 13 14 19 12 10 11 11 10 10 9 9 9 8 9 10 11 12 14 15 15 15 15 16 18 20 23 25 27 29 30 30 30
18 26 21 22 19 18 19 19 17 15 16 13 11 7 7 10 11 13 13 12 12 11 10 8 8 9 10 12 13 14 15 16 15 15 18 20 22 24 26 28 28 29 30 30
25 23 23 20 23 22 20 18 17 14 16 15 14 12 14 13 14 15 15 15 14 12 10 9 10 10 12 13 14 15 16 16 15 17 19 21 24 25 26 27 29 29 29 28
27 23 27 22 19 25 19 19 19 16 15 14 14 14 14 18 18 17 17 17 15 14 12 12 11 11 12 13 14 15 15 16 16 18 20 23 24 26 27 29 28 28 28 27
24 23 23 28 25 18 24 21 23 18 18 15 14 14 14 15 18 20 20 18 17 15 13 12 10 12 14 14 14 15 16 17 18 19 21 23 25 27 28 27 27 27 27 26
25 24 23 24 21 19 21 22 19 19 19 20 14 15 16 17 15 17 18 16 14 13 14 11 9 13 14 14 14 16 17 18 18 20 22 24 26 27 28 27 26 27 26 24
29 24 29 27 25 19 16 20 19 20 18 20 21 20 16 13 11 12 12 14 12 15 12 11 12 13 14 15 16 16 17 17 19 21 23 25 26 27 27 26 26 26 24 23
23 26 25 27 27 27 22 20 23 22 22 20 21 21 19 19 16 14 15 15 17 16 19 13 14 14 15 15 16 16 17 18 21 23 24 26 26 26 25 25 26 25 24 23
20 26 25 27 27 30 29 25 21 22 22 20 19 18 16 15 15 16 18 19 20 19 16 15 14 15 16 16 16 16 18 20 21 23 25 25 25 25 25 25 25 25 24 24
21 22 24 27 27 25 28 31 26 21 21 21 23 19 17 17 16 17 18 18 18 16 15 15 16 16 16 15 14 16 18 20 22 24 24 24 24 25 25 25 25 23 24 24
29 27 22 27 24 29 27 26 27 25 24 18 15 13 15 13 12 10 13 14 14 13 14 15 15 14 13 13 14 17 19 21 22 23 23 23 24 25 25 25 24 24 24 23
33 29 25 23 26 27 31 27 24 19 21 24 22 23 20 16 12 10 9 9 12 14 14 13 12 12 12 13 16 17 19 20 21 22 22 23 24 24 24 25 24 24 23 22
32 30 30 21 25 30 21 20 24 20 16 17 24 22 21 19 16 15 11 9 9 11 12 11 11 11 12 14 15 17 19 20 19 20 21 21 22 23 24 23 22 21 20 22
29 27 30 28 26 25 21 23 23 20 21 17 23 21 21 20 17 14 11 10 12 11 10 10 11 11 13 14 15 17 18 18 18 19 20 20 21 22 23 21 21 20 21 22
31 29 28 26 24 26 24 23 23 23 22 18 18 20 18 17 14 12 9 8 8 9 9 9 10 11 12 14 15 16 16 16 17 18 19 20 21 21 21 20 21 21 20 20
28 30 29 29 31 33 25 27 26 23 20 19 21 16 21 17 13 13 11 11 10 9 9 8 9 11 13 14 14 14 14 15 17 19 19 20 21 21 21 20 21 22 22 22
21 25 24 24 28 25 27 18 24 25 25 23 21 20 22 18 16 14 12 11 10 9 8 9 9 11 12 12 12 13 13 15 17 19 20 21 21 22 20 21 21 22 23 22
22 24 21 19 22 23 25 23 21 21 23 21 19 20 18 16 14 13 12 11 10 9 9 8 9 10 11 12 13 13 14 16 17 19 20 20 20 20 21 21 21 21 22 22
21 20 21 20 22 22 23 24 24 22 20 22 21 19 16 12 11 11 10 10 10 9 9 9 9 10 11 12 12 13 14 16 17 18 19 20 20 21 21 21 21 23 21 21
Wind_Direction
229 225 227 224 226 233 243 262 269 274 281 221 228 243 245 261 252 220 194 193 210 223 237 247 261 270 278 271 281 274 256 261 264 283 283 288 293 297 298 300 302 305 308 309
229 228 228 231 234 237 246 264 268 264 308 217 233 247 245 253 269 247 220 222 221 240 258 271 270 267 272 288 286 276 267 279 283 281 290 295 298 300 301 303 306 308 310 312
226 232 224 233 242 245 248 253 261 253 269 278 233 254 265 262 258 215 224 231 247 243 251 285 283 276 275 286 286 270 278 285 289 291 296 300 301 303 306 307 309 312 313 314
234 232 238 238 241 240 252 252 254 253 261 255 258 259 254 255 249 227 231 231 241 252 261 287 295 289 282 280 286 284 285 291 296 300 302 303 305 306 309 312 315 315 315 314
232 234 236 240 242 233 246 250 247 257 265 259 263 263 264 259 244 226 225 221 245 259 270 284 298 305 301 304 308 302 301 300 302 305 306 309 315 316 316 318 319 318 318 315
238 235 234 238 241 236 247 252 255 257 257 260 254 257 264 259 249 230 223 230 249 269 279 291 297 306 309 311 310 310 309 310 312 314 314 315 317 317 318 320 321 320 320 320
244 245 242 241 242 243 233 238 249 257 252 256 262 260 262 263 234 221 217 223 237 263 277 284 284 293 309 316 318 320 320 319 318 319 318 318 318 320 321 321 321 322 321 320
236 244 240 236 234 227 231 226 227 238 240 251 272 263 267 235 209 207 214 228 242 255 270 268 274 287 300 308 315 318 318 318 317 317 319 320 321 321 322 322 322 322 322 323
239 239 243 234 237 225 243 239 231 242 249 264 260 257 251 203 212 217 227 235 243 256 263 258 276 289 299 305 310 312 316 315 313 314 319 321 322 323 323 323 323 323 322 322
240 252 244 245 238 235 230 234 227 243 244 247 253 252 242 227 227 231 240 240 246 248 254 254 279 290 299 306 310 314 316 315 313 314 318 320 322 323 323 324 324 324 324 324
233 236 247 244 242 229 231 236 232 235 232 240 246 251 234 229 234 238 240 241 240 243 248 262 277 288 298 306 311 314 319 318 315 315 318 320 322 322 323 323 324 324 325 325
233 232 238 241 245 248 226 229 228 231 243 244 238 252 252 227 232 240 242 237 240 240 245 260 275 290 299 302 306 311 313 316 314 314 317 319 321 322 322 323 324 325 326 326
231 234 236 243 242 241 235 231 229 232 234 241 238 251 252 250 255 246 238 238 243 246 236 240 275 295 300 300 305 310 310 313 313 315 316 318 320 322 322 322 323 325 325 326
224 230 229 233 234 232 237 227 233 232 236 240 243 249 247 249 242 234 225 228 245 282 238 249 289 295 300 296 302 308 310 311 312 314 316 317 319 321 321 322 322 324 324 323
222 229 229 235 232 234 239 249 238 238 236 236 246 247 237 234 227 223 222 226 239 255 270 259 283 286 299 297 301 305 308 310 312 314 316 317 319 320 321 321 323 322 323 321
243 235 230 236 234 232 240 248 248 236 242 243 239 239 235 232 222 217 226 242 252 253 242 262 278 290 294 293 298 302 307 310 313 315 316 317 319 320 321 321 322 322 321 321
241 240 230 238 234 234 239 236 240 239 241 239 240 239 231 232 235 229 235 246 242 249 251 264 280 288 290 294 298 304 308 311 313 315 317 319 319 321 322 322 322 323 323 322
242 238 237 237 231 234 238 233 240 247 238 240 219 214 219 221 228 237 249 236 234 247 259 273 282 289 293 297 303 307 310 312 314 316 317 320 322 322 323 322 321 321 321 322
232 233 236 230 231 240 239 239 234 237 241 218 216 220 217 223 225 256 249 234 245 257 267 274 278 284 292 299 305 308 311 313 314 317 320 322 323 324 325 324 322 321 322 323
230 231 227 230 229 231 231 225 232 231 232 229 214 216 214 223 233 239 241 242 253 267 266 265 276 285 294 301 305 309 311 313 317 321 322 324 326 328 329 328 328 327 328 327
223 225 224 228 232 236 230 230 231 221 223 226 214 216 227 225 228 222 229 248 263 259 254 263 276 286 295 301 306 309 314 317 319 321 324 325 328 330 332 330 332 330 328 330
219 221 224 225 230 237 230 229 225 226 214 211 216 218 234 198 203 214 226 243 248 248 254 266 278 289 297 303 308 313 315 316 320 322 324 325 326 328 330 330 334 332 331 332
221 224 224 227 233 239 241 238 221 216 208 208 204 211 192 198 209 220 243 259 249 247 257 267 281 293 300 304 307 312 313 319 321 323 325 325 325 328 329 327 328 329 329 329
230 222 226 221 226 225 221 232 213 219 217 211 212 209 210 216 223 236 250 243 240 245 255 270 287 298 304 307 311 312 315 320 322 325 325 323 325 326 326 328 327 327 329 328
216 221 224 220 214 216 223 215 209 200 200 198 202 203 207 213 223 231 233 231 232 243 258 271 289 299 303 305 308 312 315 320 323 325 327 327 328 329 327 328 329 331 330 331
217 219 218 221 222 228 210 207 203 202 208 207 199 194 194 201 207 211 219 221 233 243 260 278 288 296 301 305 309 310 315 320 322 325 327 328 328 326 328 329 331 331 329 331